Stations météo

réclame
Mon MeteoGroup
Ingolstadt (Flugplatz), Allemagne (10860): Température de l'air & dewpoint: 11.12.2018 06:00:00 - 17.12.2018 06:00:00 (CET)Ingolstadt (Flugplatz), Allemagne (10860): Vitesse du vent & gusts: 11.12.2018 06:00:00 - 17.12.2018 06:00:00 (CET)Ingolstadt (Flugplatz), Allemagne (10860): Direction du vent: 11.12.2018 06:00:00 - 17.12.2018 06:00:00 (CET)Ingolstadt (Flugplatz), Allemagne (10860): reduced air pressure: 11.12.2018 06:00:00 - 17.12.2018 06:00:00 (CET)Ingolstadt (Flugplatz), Allemagne (10860): visibility: 11.12.2018 06:00:00 - 17.12.2018 06:00:00 (CET)
Date & Time tt [°C] td [°C] ff [km/h] ff [knt] fx [km/h] fx [knt] dd ppp [hPa] vv [km]
17.12.2018 06:00:00 -0,9 -1,4 4 2 - - N 1020,3 0,1
17.12.2018 05:00:00 -1,0 -1,6 4 2 - - N 1019,6 0,1
17.12.2018 04:00:00 -0,7 -1,3 7 4 - - NE 1019,3 0,6
17.12.2018 03:00:00 -0,5 -1,1 4 2 - - E 1019,2 0,5
17.12.2018 02:00:00 -0,8 -1,6 7 4 - - NE 1019,0 0,8
17.12.2018 01:00:00 -0,5 -1,3 4 2 - - N 1018,4 3,6
17.12.2018 00:00:00 -0,9 -1,7 4 2 - - N 1018,3 3,7
16.12.2018 23:00:00 -1,0 -1,8 4 2 - - ENE 1018,3 3,4
16.12.2018 22:00:00 -1,5 -2,3 4 2 - - E 1018,1 3,1
16.12.2018 21:00:00 -1,2 -2,1 4 2 - - ENE 1017,9 3,3
16.12.2018 20:00:00 -1,4 -2,3 4 2 - - NE 1017,8 3,9
16.12.2018 19:00:00 -1,9 -2,8 4 2 - - N 1017,6 3,7
16.12.2018 18:00:00 -1,2 -2,3 0 0 - - N 1017,5 3,6
16.12.2018 17:00:00 -1,5 -2,6 2 1 - - ENE 1017,1 4,5
16.12.2018 16:00:00 -1,6 -3,0 5 3 - - - 1016,6 2,8
16.12.2018 15:00:00 -1,9 -3,6 7 4 - - S 1016,2 4,5
16.12.2018 14:00:00 -2,4 -4,1 4 2 - - - 1016,0 5
16.12.2018 13:00:00 -2,7 -4,8 7 4 - - N 1016,4 2,8
16.12.2018 12:00:00 -2,7 -6,0 4 2 - - N 1016,6 3,8
16.12.2018 11:00:00 -3,0 -6,6 7 4 - - SSE 1016,9 7
16.12.2018 10:00:00 -3,1 -7,3 7 4 - - SE 1017,1 5
16.12.2018 09:00:00 -3,6 -7,0 4 2 - - N 1017,4 5
16.12.2018 08:00:00 -3,8 -7,3 7 4 - - SE 1017,1 5
16.12.2018 07:00:00 -4,9 -7,6 11 6 - - E 1017,6 5
16.12.2018 06:00:00 -4,6 -8,0 7 4 - - ENE 1018,1 5
16.12.2018 05:00:00 -4,5 -8,2 4 2 - - ENE 1018,7 5
16.12.2018 04:00:00 -4,7 -8,4 4 2 - - E 1019,3 5
16.12.2018 03:00:00 -5,9 -8,5 14 8 - - E 1019,7 5
16.12.2018 02:00:00 -5,1 -8,5 11 6 - - E 1020,9 5
16.12.2018 01:00:00 -4,1 -8,4 7 4 - - E 1021,6 6
16.12.2018 00:00:00 -3,8 -8,2 7 4 - - E 1022,3 6
15.12.2018 23:00:00 -2,6 -8,2 7 4 - - ESE 1022,8 6
15.12.2018 22:00:00 -2,1 -8,6 7 4 - - SE 1023,6 6
15.12.2018 21:00:00 -1,9 -8,6 11 6 - - ESE 1024,5 20
15.12.2018 20:00:00 -1,9 -8,8 7 4 - - ESE 1025,1 6
15.12.2018 19:00:00 -2,1 -8,6 11 6 - - E 1025,7 6
15.12.2018 18:00:00 -1,6 -9,1 7 4 - - E 1026,1 6
15.12.2018 17:00:00 -1,4 -9,2 11 6 - - ENE 1026,3 6
15.12.2018 16:00:00 -1,3 -8,7 7 4 - - E 1026,4 6
15.12.2018 15:00:00 -1,1 -8,3 7 4 - - E 1026,4 20
15.12.2018 14:00:00 -1,0 -8,2 7 4 - - E 1026,3 6
15.12.2018 13:00:00 -1,0 -8,1 11 6 - - E 1026,7 6
15.12.2018 12:00:00 -1,0 -8,2 11 6 - - ESE 1026,9 6
15.12.2018 11:00:00 -1,1 -6,9 7 4 - - ESE 1027,4 6
15.12.2018 10:00:00 -1,4 -6,2 7 4 - - E 1027,7 6
15.12.2018 09:00:00 -1,6 -6,2 7 4 - - E 1027,6 6
15.12.2018 08:00:00 -1,7 -6,0 7 4 - - E 1027,2 6
15.12.2018 07:00:00 -1,6 -6,2 7 4 - - E 1027,0 6
15.12.2018 06:00:00 -1,6 -5,8 7 4 - - E 1026,6 6
15.12.2018 05:00:00 -1,5 -5,8 11 6 - - E 1026,4 6
15.12.2018 04:00:00 -1,4 -5,2 11 6 - - E 1026,1 6
15.12.2018 03:00:00 -1,3 -5,0 7 4 - - E 1025,8 5
15.12.2018 02:00:00 -1,3 -5,0 7 4 - - ENE 1025,6 5
15.12.2018 01:00:00 -1,3 -5,3 11 6 - - ENE 1025,2 6
15.12.2018 00:00:00 -1,3 -5,5 7 4 - - ENE 1025,1 6
14.12.2018 23:00:00 -1,2 -5,4 7 4 - - NE 1025,3 6
14.12.2018 22:00:00 -1,0 -5,2 7 4 - - NE 1025,1 6
14.12.2018 21:00:00 -1,2 -5,9 0 0 - - N 1024,7 6
14.12.2018 20:00:00 -1,2 -6,0 4 2 - - NNE 1024,0 6
14.12.2018 19:00:00 -1,2 -6,2 4 2 - - E 1023,8 20
14.12.2018 18:00:00 -1,1 -6,3 11 6 - - SSE 1023,3 20
14.12.2018 17:00:00 -1,2 -6,6 7 4 - - E 1023,0 20
14.12.2018 16:00:00 -1,2 -6,7 11 6 - - E 1022,4 20
14.12.2018 15:00:00 -1,3 -6,8 7 4 - - ESE 1022,0 22
14.12.2018 14:00:00 -1,4 -6,9 11 6 - - ESE 1021,7 22
14.12.2018 13:00:00 -1,4 -6,9 15 8 - - E 1021,7 10
14.12.2018 12:00:00 -1,4 -6,6 11 6 - - SE 1021,7 25
14.12.2018 11:00:00 -1,4 -6,6 18 10 - - E 1021,7 20
14.12.2018 10:00:00 -1,5 -6,6 11 6 - - E 1021,3 18
14.12.2018 09:00:00 -1,7 -6,4 11 6 - - E 1020,8 18
14.12.2018 08:00:00 -1,8 -6,5 7 4 - - SE 1020,4 15
14.12.2018 07:00:00 -1,6 -6,5 11 6 - - ESE 1020,0 15
14.12.2018 06:00:00 -1,6 -6,4 11 6 - - ESE 1019,7 15
14.12.2018 05:00:00 -1,5 -6,3 11 6 - - ESE 1019,3 6
14.12.2018 04:00:00 -1,3 -6,0 14 8 - - ESE 1019,0 6
14.12.2018 03:00:00 -1,2 -6,0 18 10 - - E 1019,4 6
14.12.2018 02:00:00 -0,9 -5,6 11 6 - - E 1018,9 6
14.12.2018 01:00:00 -0,9 -5,4 18 10 - - E 1018,7 6
14.12.2018 00:00:00 -0,7 -5,2 18 10 - - E 1018,7 6
13.12.2018 23:00:00 -0,8 -5,1 14 8 - - E 1018,6 6
13.12.2018 22:00:00 -0,6 -5,0 18 10 - - E 1018,3 6
13.12.2018 21:00:00 -0,6 -4,7 18 10 - - ENE 1018,3 6
13.12.2018 20:00:00 -0,6 -4,8 22 12 - - ENE 1018,1 5
13.12.2018 19:00:00 -0,7 -4,8 18 10 - - ENE 1017,8 12
13.12.2018 18:00:00 -0,5 -4,9 18 10 - - NE 1017,9 15
13.12.2018 17:00:00 -0,2 -4,8 22 12 - - ENE 1017,7 15
13.12.2018 16:00:00 0,2 -4,8 18 10 - - E 1017,6 15
13.12.2018 15:00:00 0,3 -5,0 18 10 - - E 1017,3 25
13.12.2018 14:00:00 0,2 -4,7 14 8 - - E 1017,6 30
13.12.2018 13:00:00 -0,1 -4,8 18 10 - - E 1017,8 25
13.12.2018 12:00:00 -0,2 -4,4 18 10 - - E 1018,1 20
13.12.2018 11:00:00 -0,4 -4,5 18 10 - - E 1018,8 20
13.12.2018 10:00:00 -0,5 -4,4 18 10 - - E 1019,1 18
13.12.2018 09:00:00 -0,9 -3,7 18 10 - - ENE 1019,3 10
13.12.2018 08:00:00 -0,9 -3,8 22 12 - - ENE 1019,4 15
13.12.2018 07:00:00 -0,9 -3,9 18 10 - - ENE 1019,5 10
13.12.2018 06:00:00 -0,9 -3,6 14 8 - - ENE 1019,9 20
13.12.2018 05:00:00 -1,4 -2,7 11 6 - - ENE 1020,5 5
13.12.2018 04:00:00 -1,1 -2,4 11 6 - - E 1021,0 5
13.12.2018 03:00:00 -0,5 -2,8 11 6 - - E 1021,2 6
13.12.2018 02:00:00 -0,3 -2,1 18 10 - - E 1021,4 6
13.12.2018 01:00:00 -0,1 -2,3 14 8 - - ENE 1021,6 6
13.12.2018 00:00:00 0,4 -1,8 11 6 - - ENE 1022,0 6
12.12.2018 23:00:00 0,7 -1,5 11 6 - - ENE 1022,2 6
12.12.2018 22:00:00 0,9 -1,1 11 6 - - ENE 1022,5 6
12.12.2018 21:00:00 1,0 -0,8 4 2 - - NE 1022,6 6
12.12.2018 20:00:00 0,9 -1,0 4 2 - - NE 1022,6 5
12.12.2018 19:00:00 -0,1 -0,3 0 0 - - N 1023,0 15
12.12.2018 18:00:00 0,6 -0,1 0 0 - - N 1023,0 18
12.12.2018 17:00:00 1,2 -0,1 4 2 - - N 1022,9 20
12.12.2018 16:00:00 1,7 -0,2 14 8 - - ENE 1023,0 10
12.12.2018 15:00:00 2,1 1,0 7 4 - - NW 1022,9 10
12.12.2018 14:00:00 2,4 0,8 7 4 - - NW 1023,1 12
12.12.2018 13:00:00 2,3 1,1 11 6 - - NNW 1023,4 12
12.12.2018 12:00:00 2,2 1,3 7 4 - - NW 1023,8 6
12.12.2018 11:00:00 2,2 1,0 8 4 - - WNW 1024,0 5
12.12.2018 10:00:00 1,9 1,0 7 4 - - WNW 1024,0 7
12.12.2018 09:00:00 1,6 0,8 11 6 - - W 1023,9 6
12.12.2018 08:00:00 1,3 0,8 16 9 - - W 1023,7 5
12.12.2018 07:00:00 1,0 0,7 18 10 - - W 1023,5 4,0
12.12.2018 06:00:00 0,9 0,5 13 7 - - W 1023,4 4,0
12.12.2018 05:00:00 1,1 0,2 14 8 - - W 1023,3 3,6
12.12.2018 04:00:00 1,5 0,2 14 8 - - W 1023,2 3,9
12.12.2018 03:00:00 1,5 0,0 18 10 - - W 1023,4 5
12.12.2018 02:00:00 1,5 0,0 18 10 - - W 1023,2 5
12.12.2018 01:00:00 1,4 -0,2 18 10 - - W 1023,2 5
12.12.2018 00:00:00 1,5 -0,1 18 10 - - W 1023,2 5
11.12.2018 23:00:00 1,5 0,1 18 10 - - W 1023,3 5
11.12.2018 22:00:00 1,7 0,2 18 10 - - W 1023,2 5
11.12.2018 21:00:00 1,7 0,3 14 8 - - WNW 1023,4 5
11.12.2018 20:00:00 1,8 0,0 18 10 - - W 1023,3 25
11.12.2018 19:00:00 1,9 -0,1 25 14 - - W 1023,2 35
11.12.2018 18:00:00 2,3 0,3 25 14 - - W 1022,9 30
11.12.2018 17:00:00 2,5 0,0 18 10 - - W 1022,7 10
11.12.2018 16:00:00 2,5 0,2 25 14 - - W 1022,8 40
11.12.2018 15:00:00 3,0 -0,7 29 16 - - W 1022,4 35
11.12.2018 14:00:00 3,0 0,5 25 14 47 25 W 1022,4 30
11.12.2018 13:00:00 3,0 0,2 32 18 - - W 1022,5 20
11.12.2018 12:00:00 3,1 -0,7 36 19 47 25 W 1022,4 40
11.12.2018 11:00:00 2,8 -0,5 25 14 47 25 W 1023,0 25
11.12.2018 10:00:00 1,8 -0,1 29 16 - - W 1022,4 25
11.12.2018 09:00:00 1,8 0,0 25 14 47 25 W 1022,4 25
11.12.2018 08:00:00 1,8 -0,1 29 16 47 25 W 1022,3 20
11.12.2018 07:00:00 1,9 -0,5 25 14 - - W 1022,2 20
11.12.2018 06:00:00 2,3 -0,6 25 14 - - WNW 1022,1 12

tt = Température de l'air
td = dewpoint
ff = Vitesse du vent
fx = gusts
dd = Direction du vent
ppp = reduced air pressure
vv = visibility

stations d'obs. à proximité